Погода в Ахтарском

Россия / Краснодарский край     46°00′15″N   38°20′51″E
темп.,
°C
ветер,
м/с
пор.,
м/с
влажн.,
%
обл.,
%
осадки,
мм/ч
давл.,
гПа
погр.,
м
12 мая, ср
ср1200:00+7ю468826 0.3 1013107
03:00+7ю359510 0.3 101397
06:00+7ююв47946 0.0 1014159
09:00+11ююв8128482 0.1 1015856
12:00+11ююв3881100 0.1 1015564
15:00+13ююз3582100 0.7 1015214
18:00+11зсз3393100 1.3 1015113
21:00+11ссв22928 1.4 101439
13 мая, чт
чт1300:00+11св34935 0.0 101380
03:00+11св33930 0.0 101357
06:00+11в34920 0.0 101394
09:00+17в45740 0.0 1013425
12:00+22в455896 0.0 1012780
15:00+24в5555100 0.0 1012940
18:00+21в477393 0.0 1011206
21:00+18в488712 0.0 1011116
14 мая, пт
пт1400:00+16в410925 0.0 1010174
03:00+15вюв48920 0.0 1010132
06:00+15юв35895 0.0 101087
09:00+22юв226321 0.0 1010291
12:00+27юв334957 0.0 1010663
15:00+28ссз01465 0.0 1010668
18:00+25сз226525 0.0 1010176
21:00+18ссз34790 0.0 101050
15 мая, сб
сб1500:00+18сз35870 0.0 101069
03:00+17сз358044 0.0 101273
06:00+16з35873 0.0 1013101
09:00+21зсз3458100 0.0 1013314
12:00+23сз3253100 0.0 1014557
15:00+23сз3353100 0.0 1014570
18:00+20сз3368100 0.0 1013148
21:00+17сз22725 0.0 101416
16 мая, вс
вс1600:00+16ссв22720 0.0 101215
03:00+16св34765 0.0 101253
06:00+16всв34755 0.0 101170
09:00+22в46595 0.0 1010317
12:00+26всв57635 0.0 1009740
15:00+28всв675878 0.0 10071105
18:00+26всв5871100 0.0 1005745
21:00+20всв510835 0.0 1005183